Date,TemperatureHighF,TemperatureAvgF,TemperatureLowF,DewpointHighF,DewpointAvgF,DewpointLowF,HumidityHigh,HumidityAvg,HumidityLow,PressureMaxIn,PressureMinIn,WindSpeedMaxMPH,WindSpeedAvgMPH,GustSpeedMaxMPH,PrecipitationSumIn
2012-1-1,42,34,26,-100,-100,-100,0,0,100,0.00,40.00,0,-999,0,0.01
2012-1-2,51,36,24,-100,-100,-100,0,0,100,0.00,40.00,0,-999,0,0.00
2012-1-3,53,41,30,-100,-100,-100,0,0,100,0.00,40.00,0,-999,0,0.00
2012-1-4,63,51,44,-100,-100,-100,0,0,100,0.00,40.00,0,-999,0,0.00
2012-1-5,43,37,27,-100,-100,-100,0,0,100,0.00,40.00,0,-999,0,0.03
2012-1-6,40,28,18,-100,-100,-100,0,0,100,0.00,40.00,0,-999,0,0.02
2012-1-7,41,33,13,-100,-100,-100,0,0,100,0.00,40.00,0,-999,0,0.02
2012-1-8,52,42,35,-100,-100,-100,0,0,100,0.00,40.00,0,-999,0,0.00
2012-1-9,55,44,37,-100,-100,-100,0,0,100,0.00,40.00,0,-999,0,0.00
2012-1-10,42,33,14,-100,-100,-100,0,0,100,0.00,40.00,0,-999,0,0.00
2012-1-11,26,20,11,-100,-100,-100,0,0,100,0.00,40.00,0,-999,0,0.00
2012-1-12,36,23,12,-100,-100,-100,0,0,100,0.00,40.00,0,-999,0,0.00
2012-1-13,57,44,36,-100,-100,-100,0,0,100,0.00,40.00,0,-999,0,0.00
2012-1-14,50,39,26,-100,-100,-100,0,0,100,0.00,40.00,0,-999,0,0.02
2012-1-15,30,23,16,-100,-100,-100,0,0,100,0.00,40.00,0,-999,0,0.01
2012-1-16,27,20,7,-100,-100,-100,0,0,100,0.00,40.00,0,-999,0,0.00
2012-1-17,31,28,22,-100,-100,-100,0,0,100,0.00,40.00,0,-999,0,0.05
2012-1-18,38,35,30,-100,-100,-100,0,0,100,0.00,40.00,0,-999,0,0.37
2012-1-19,46,40,37,-100,-100,-100,0,0,100,0.00,40.00,0,-999,0,0.30
2012-1-20,41,38,36,-100,-100,-100,0,0,100,0.00,40.00,0,-999,0,0.20
2012-1-21,43,34,26,-100,-100,-100,0,0,100,0.00,40.00,0,-999,0,0.02
2012-1-22,40,33,25,-100,-100,-100,0,0,100,0.00,40.00,0,-999,0,0.02
2012-1-23,43,32,18,-100,-100,-100,0,0,100,0.00,40.00,0,-999,0,0.02
2012-1-24,47,38,33,-100,-100,-100,0,0,100,0.00,40.00,0,-999,0,0.38
2012-1-25,47,43,40,-100,-100,-100,0,0,100,0.00,40.00,0,-999,0,0.02
2012-1-26,43,36,24,-100,-100,-100,0,0,100,0.00,40.00,0,-999,0,0.02
2012-1-27,44,29,16,-100,-100,-100,0,0,100,0.00,40.00,0,-999,0,0.01
2012-1-28,50,41,33,-100,-100,-100,0,0,100,0.00,40.00,0,-999,0,0.00
2012-1-29,54,45,40,-100,-100,-100,0,0,100,0.00,40.00,0,-999,0,0.00
2012-1-30,47,37,27,-100,-100,-100,0,0,100,0.00,40.00,0,-999,0,0.01
2012-1-31,47,39,27,-100,-100,-100,0,0,100,0.00,40.00,0,-999,0,0.00
2012-2-1,42,37,23,-100,-100,-100,0,0,100,0.00,40.00,0,-999,0,0.00
2012-2-2,43,31,19,-100,-100,-100,0,0,100,0.00,40.00,0,-999,0,0.00
2012-2-3,46,27,14,-100,-100,-100,0,0,100,0.00,40.00,0,-999,0,0.01
2012-2-4,48,27,16,-100,-100,-100,0,0,100,0.00,40.00,0,-999,0,0.00
2012-2-5,42,25,16,-100,-100,-100,0,0,100,0.00,40.00,0,-999,0,0.00
2012-2-6,27,22,14,-100,-100,-100,0,0,100,0.00,40.00,0,-999,0,0.00
2012-2-7,32,26,21,-100,-100,-100,0,0,100,0.00,40.00,0,-999,0,0.00
2012-2-8,43,37,28,-100,-100,-100,0,0,100,0.00,40.00,0,-999,0,0.22
2012-2-9,47,40,35,-100,-100,-100,0,0,100,0.00,40.00,0,-999,0,0.18
2012-2-10,52,37,30,-100,-100,-100,0,0,100,0.00,40.00,0,-999,0,0.01
2012-2-11,43,35,28,-100,-100,-100,0,0,100,0.00,40.00,0,-999,0,0.04
2012-2-12,47,35,25,-100,-100,-100,0,0,100,0.00,40.00,0,-999,0,0.01
2012-2-13,37,33,29,-100,-100,-100,0,0,100,0.00,40.00,0,-999,0,0.00
2012-2-14,34,29,20,-100,-100,-100,0,0,100,0.00,40.00,0,-999,0,0.01
2012-2-15,42,30,15,-100,-100,-100,0,0,100,0.00,40.00,0,-999,0,0.01
2012-2-16,48,38,29,-100,-100,-100,0,0,100,0.00,40.00,0,-999,0,0.00
2012-2-17,52,41,30,-100,-100,-100,0,0,100,0.00,40.00,0,-999,0,0.06
2012-2-18,36,30,26,-100,-100,-100,0,0,100,0.00,40.00,0,-999,0,0.05
2012-2-19,39,30,21,-100,-100,-100,0,0,100,0.00,40.00,0,-999,0,0.01
2012-2-20,44,37,29,-100,-100,-100,0,0,100,0.00,40.00,0,-999,0,0.02
2012-2-21,53,46,41,-100,-100,-100,0,0,100,0.00,40.00,0,-999,0,0.01
2012-2-22,48,42,24,-100,-100,-100,0,0,100,0.00,40.00,0,-999,0,0.01
2012-2-23,42,30,18,-100,-100,-100,0,0,100,0.00,40.00,0,-999,0,0.01
2012-2-24,62,42,21,-100,-100,-100,0,0,100,0.00,40.00,0,-999,0,0.05
2012-2-25,32,28,23,-100,-100,-100,0,0,100,0.00,40.00,0,-999,0,0.07
2012-2-26,35,29,23,-100,-100,-100,0,0,100,0.00,40.00,0,-999,0,0.01
2012-2-27,30,24,13,-100,-100,-100,0,0,100,0.00,40.00,0,-999,0,0.00
2012-2-28,37,28,15,-100,-100,-100,0,0,100,0.00,40.00,0,-999,0,0.00
2012-2-29,36,29,22,-100,-100,-100,0,0,100,0.00,40.00,0,-999,0,0.03
2012-3-1,36,28,20,-100,-100,-100,0,0,100,0.00,40.00,0,-999,0,0.05
2012-3-2,40,31,18,-100,-100,-100,0,0,100,0.00,40.00,0,-999,0,0.01
2012-3-3,53,40,27,-100,-100,-100,0,0,100,0.00,40.00,0,-999,0,0.00
2012-3-4,60,40,27,-100,-100,-100,0,0,100,0.00,40.00,0,-999,0,0.00
2012-3-5,52,38,25,-100,-100,-100,0,0,100,0.00,40.00,0,-999,0,0.02
2012-3-6,32,24,13,-100,-100,-100,0,0,100,0.00,40.00,0,-999,0,0.04
2012-3-7,48,30,12,-100,-100,-100,0,0,100,0.00,40.00,0,-999,0,0.02
2012-3-8,68,50,31,-100,-100,-100,0,0,100,0.00,40.00,0,-999,0,0.00
2012-3-9,66,50,33,-100,-100,-100,0,0,100,0.00,40.00,0,-999,0,0.00
2012-3-10,55,42,23,-100,-100,-100,0,0,100,0.00,40.00,0,-999,0,0.00
2012-3-11,43,36,21,-100,-100,-100,0,0,100,0.00,40.00,0,-999,0,0.06
2012-3-12,47,39,28,-100,-100,-100,0,0,100,0.00,40.00,0,-999,0,0.01
2012-3-13,42,32,27,-100,-100,-100,0,0,100,0.00,40.00,0,-999,0,0.07
2012-3-14,46,39,30,-100,-100,-100,0,0,100,0.00,40.00,0,-999,0,0.05
2012-3-15,53,46,38,-100,-100,-100,0,0,100,0.00,40.00,0,-999,0,0.03
2012-3-16,50,39,32,-100,-100,-100,0,0,100,0.00,40.00,0,-999,0,0.08
2012-3-17,41,35,26,-100,-100,-100,0,0,100,0.00,40.00,0,-999,0,0.07
2012-3-18,35,29,21,-100,-100,-100,0,0,100,0.00,40.00,0,-999,0,0.05
2012-3-19,40,28,15,-100,-100,-100,0,0,100,0.00,40.00,0,-999,0,0.01
2012-3-20,47,38,32,-100,-100,-100,0,0,100,0.00,40.00,0,-999,0,0.07
2012-3-21,38,33,30,-100,-100,-100,0,0,100,0.00,40.00,0,-999,0,0.42
2012-3-22,38,32,24,-100,-100,-100,0,0,100,0.00,40.00,0,-999,0,0.21
2012-3-23,49,34,24,-100,-100,-100,0,0,100,0.00,40.00,0,-999,0,0.01
2012-3-24,40,34,30,-100,-100,-100,0,0,100,0.00,40.00,0,-999,0,0.00
2012-3-25,49,35,27,-100,-100,-100,0,0,100,0.00,40.00,0,-999,0,0.00
2012-3-26,51,38,25,-100,-100,-100,0,0,100,0.00,40.00,0,-999,0,0.00
2012-3-27,50,43,38,-100,-100,-100,0,0,100,0.00,40.00,0,-999,0,0.02
2012-3-28,49,41,32,-100,-100,-100,0,0,100,0.00,40.00,0,-999,0,0.10
2012-3-29,53,45,40,-100,-100,-100,0,0,100,0.00,40.00,0,-999,0,0.03
2012-3-30,46,42,33,-100,-100,-100,0,0,100,0.00,40.00,0,-999,0,0.17
2012-3-31,48,40,32,-100,-100,-100,0,0,100,0.00,40.00,0,-999,0,0.19
2012-4-1,39,33,26,-100,-100,-100,0,0,100,0.00,40.00,0,-999,0,0.02
2012-4-2,59,41,24,-100,-100,-100,0,0,100,0.00,40.00,0,-999,0,0.01
2012-4-3,60,44,31,-100,-100,-100,0,0,100,0.00,40.00,0,-999,0,0.04
2012-4-4,39,32,23,-100,-100,-100,0,0,100,0.00,40.00,0,-999,0,0.21
2012-4-5,39,29,19,-100,-100,-100,0,0,100,0.00,40.00,0,-999,0,0.02
2012-4-6,44,30,21,-100,-100,-100,0,0,100,0.00,40.00,0,-999,0,0.01
2012-4-7,52,37,18,-100,-100,-100,0,0,100,0.00,40.00,0,-999,0,0.00
2012-4-8,52,41,28,-100,-100,-100,0,0,100,0.00,40.00,0,-999,0,0.00
2012-4-9,63,47,35,-100,-100,-100,0,0,100,0.00,40.00,0,-999,0,0.00
2012-4-10,60,48,37,-100,-100,-100,0,0,100,0.00,40.00,0,-999,0,0.00
2012-4-11,50,41,33,-100,-100,-100,0,0,100,0.00,40.00,0,-999,0,0.28
2012-4-12,48,38,27,-100,-100,-100,0,0,100,0.00,40.00,0,-999,0,0.17
2012-4-13,45,37,27,-100,-100,-100,0,0,100,0.00,40.00,0,-999,0,0.39
2012-4-14,53,41,31,-100,-100,-100,0,0,100,0.00,40.00,0,-999,0,0.33
2012-4-15,59,44,28,-100,-100,-100,0,0,100,0.00,40.00,0,-999,0,0.01
2012-4-16,52,46,39,-100,-100,-100,0,0,100,0.00,40.00,0,-999,0,0.09
2012-4-17,50,40,26,-100,-100,-100,0,0,100,0.00,40.00,0,-999,0,0.01
2012-4-18,56,45,37,-100,-100,-100,0,0,100,0.00,40.00,0,-999,0,0.02
2012-4-19,55,48,40,-100,-100,-100,0,0,100,0.00,40.00,0,-999,0,0.15
2012-4-20,66,54,41,-100,-100,-100,0,0,100,0.00,40.00,0,-999,0,0.04
2012-4-21,73,55,35,-100,-100,-100,0,0,100,0.00,40.00,0,-999,0,0.00
2012-4-22,79,60,40,-100,-100,-100,0,0,100,0.00,40.00,0,-999,0,0.00
2012-4-23,83,62,44,-100,-100,-100,0,0,100,0.00,40.00,0,-999,0,0.01
2012-4-24,69,59,43,-100,-100,-100,0,0,100,0.00,40.00,0,-999,0,0.01
2012-4-25,64,51,39,-100,-100,-100,0,0,100,0.00,40.00,0,-999,0,0.14
2012-4-26,49,43,33,-100,-100,-100,0,0,100,0.00,40.00,0,-999,0,0.41
2012-4-27,49,40,29,-100,-100,-100,0,0,100,0.00,40.00,0,-999,0,0.01
2012-4-28,57,46,36,-100,-100,-100,0,0,100,0.00,40.00,0,-999,0,0.01
2012-4-29,69,50,29,-100,-100,-100,0,0,100,0.00,40.00,0,-999,0,0.00
2012-4-30,54,49,38,-100,-100,-100,0,0,100,0.00,40.00,0,-999,0,0.04
2012-5-1,50,38,25,-100,-100,-100,0,0,100,0.00,40.00,0,-999,0,0.01
2012-5-2,52,41,25,-100,-100,-100,0,0,100,0.00,40.00,0,-999,0,0.01
2012-5-3,54,46,38,-100,-100,-100,0,0,100,0.00,40.00,0,-999,0,0.13
2012-5-4,47,40,31,-100,-100,-100,0,0,100,0.00,40.00,0,-999,0,0.01
2012-5-5,50,38,28,-100,-100,-100,0,0,100,0.00,40.00,0,-999,0,0.00
2012-5-6,60,42,21,-100,-100,-100,0,0,100,0.00,40.00,0,-999,0,0.00
2012-5-7,68,50,26,-100,-100,-100,0,0,100,0.00,40.00,0,-999,0,0.00
2012-5-8,74,56,35,-100,-100,-100,0,0,100,0.00,40.00,0,-999,0,0.00
2012-5-9,53,44,35,-100,-100,-100,0,0,100,0.00,40.00,0,-999,0,0.00
2012-5-10,54,40,19,-100,-100,-100,0,0,100,0.00,40.00,0,-999,0,0.00
2012-5-11,61,44,22,-100,-100,-100,0,0,100,0.00,40.00,0,-999,0,0.00
2012-5-12,72,48,25,-100,-100,-100,0,0,100,0.00,40.00,0,-999,0,0.00
2012-5-13,80,66,33,-100,-100,-100,0,0,100,0.00,40.00,0,-999,0,0.00
2012-5-14,82,69,41,-100,-100,-100,0,0,100,0.00,40.00,0,-999,0,0.00
2012-5-15,82,69,39,-100,-100,-100,0,0,100,0.00,40.00,0,-999,0,0.00
2012-5-16,70,58,38,-100,-100,-100,0,0,100,0.00,40.00,0,-999,0,0.00
2012-5-17,61,50,36,-100,-100,-100,0,0,100,0.00,40.00,0,-999,0,0.00
2012-5-18,61,47,23,-100,-100,-100,0,0,100,0.00,40.00,0,-999,0,0.00
2012-5-19,67,56,25,-100,-100,-100,0,0,100,0.00,40.00,0,-999,0,0.00
2012-5-20,74,59,40,-100,-100,-100,0,0,100,0.00,40.00,0,-999,0,0.00
2012-5-21,61,53,47,-100,-100,-100,0,0,100,0.00,40.00,0,-999,0,0.08
2012-5-22,56,48,39,-100,-100,-100,0,0,100,0.00,40.00,0,-999,0,0.10
2012-5-23,55,44,29,-100,-100,-100,0,0,100,0.00,40.00,0,-999,0,0.02
2012-5-24,51,40,36,-100,-100,-100,0,0,100,0.00,40.00,0,-999,0,0.14
2012-5-25,56,45,37,-100,-100,-100,0,0,100,0.00,40.00,0,-999,0,0.69
2012-5-26,56,44,30,-100,-100,-100,0,0,100,0.00,40.00,0,-999,0,0.01
2012-5-27,63,51,32,-100,-100,-100,0,0,100,0.00,40.00,0,-999,0,0.01
2012-5-28,65,51,35,-100,-100,-100,0,0,100,0.00,40.00,0,-999,0,0.00
2012-5-29,67,50,32,-100,-100,-100,0,0,100,0.00,40.00,0,-999,0,0.00
2012-5-30,72,58,38,-100,-100,-100,0,0,100,0.00,40.00,0,-999,0,0.00
2012-5-31,76,61,46,-100,-100,-100,0,0,100,0.00,40.00,0,-999,0,0.00
2012-6-1,81,63,47,-100,-100,-100,0,0,100,0.00,40.00,0,-999,0,0.00
2012-6-2,64,56,50,-100,-100,-100,0,0,100,0.00,40.00,0,-999,0,0.12
2012-6-3,62,54,48,-100,-100,-100,0,0,100,0.00,40.00,0,-999,0,0.09
2012-6-4,57,50,43,-100,-100,-100,0,0,100,0.00,40.00,0,-999,0,0.60
2012-6-5,51,42,36,-100,-100,-100,0,0,100,0.00,40.00,0,-999,0,0.41
2012-6-6,61,45,30,-100,-100,-100,0,0,100,0.00,40.00,0,-999,0,0.04
2012-6-7,58,48,38,-100,-100,-100,0,0,100,0.00,40.00,0,-999,0,0.05
2012-6-8,53,43,36,-100,-100,-100,0,0,100,0.00,40.00,0,-999,0,0.06
2012-6-9,54,43,30,-100,-100,-100,0,0,100,0.00,40.00,0,-999,0,0.08
2012-6-10,68,53,29,-100,-100,-100,0,0,100,0.00,40.00,0,-999,0,0.00
2012-6-11,74,62,34,-100,-100,-100,0,0,100,0.00,40.00,0,-999,0,0.01
2012-6-12,69,60,44,-100,-100,-100,0,0,100,0.00,40.00,0,-999,0,0.01
2012-6-13,67,56,42,-100,-100,-100,0,0,100,0.00,40.00,0,-999,0,0.01
2012-6-14,71,58,33,-100,-100,-100,0,0,100,0.00,40.00,0,-999,0,0.01
2012-6-15,72,60,38,-100,-100,-100,0,0,100,0.00,40.00,0,-999,0,0.01
2012-6-16,82,62,41,-100,-100,-100,0,0,100,0.00,40.00,0,-999,0,0.00
2012-6-17,72,64,54,-100,-100,-100,0,0,100,0.00,40.00,0,-999,0,0.01
2012-6-18,56,50,44,-100,-100,-100,0,0,100,0.00,40.00,0,-999,0,0.01
2012-6-19,60,48,32,-100,-100,-100,0,0,100,0.00,40.00,0,-999,0,0.00
2012-6-20,81,69,52,-100,-100,-100,0,0,100,0.00,40.00,0,-999,0,0.00
2012-6-21,81,68,39,-100,-100,-100,0,0,100,0.00,40.00,0,-999,0,0.00
2012-6-22,59,53,43,-100,-100,-100,0,0,100,0.00,40.00,0,-999,0,0.15
2012-6-23,59,48,41,-100,-100,-100,0,0,100,0.00,40.00,0,-999,0,0.42
2012-6-24,65,52,41,-100,-100,-100,0,0,100,0.00,40.00,0,-999,0,0.01
2012-6-25,66,53,43,-100,-100,-100,0,0,100,0.00,40.00,0,-999,0,0.00
2012-6-26,60,50,43,-100,-100,-100,0,0,100,0.00,40.00,0,-999,0,0.00
2012-6-27,73,61,31,-100,-100,-100,0,0,100,0.00,40.00,0,-999,0,0.00
2012-6-28,78,64,41,-100,-100,-100,0,0,100,0.00,40.00,0,-999,0,0.00
2012-6-29,74,63,50,-100,-100,-100,0,0,100,0.00,40.00,0,-999,0,0.00
2012-6-30,72,60,51,-100,-100,-100,0,0,100,0.00,40.00,0,-999,0,0.14
2012-7-1,74,62,50,-100,-100,-100,0,0,100,0.00,40.00,0,-999,0,0.07
2012-7-2,77,63,43,-100,-100,-100,0,0,100,0.00,40.00,0,-999,0,0.07
2012-7-3,64,55,46,-100,-100,-100,0,0,100,0.00,40.00,0,-999,0,0.00
2012-7-4,73,58,30,-100,-100,-100,0,0,100,0.00,40.00,0,-999,0,0.00
2012-7-5,81,66,36,-100,-100,-100,0,0,100,0.00,40.00,0,-999,0,0.00
2012-7-6,84,67,43,-100,-100,-100,0,0,100,0.00,40.00,0,-999,0,0.00
2012-7-7,90,72,47,-100,-100,-100,0,0,100,0.00,40.00,0,-999,0,0.00
2012-7-8,91,73,53,-100,-100,-100,0,0,100,0.00,40.00,0,-999,0,0.00
2012-7-9,89,73,51,-100,-100,-100,0,0,100,0.00,40.00,0,-999,0,0.00
2012-7-10,88,72,52,-100,-100,-100,0,0,100,0.00,40.00,0,-999,0,0.00
2012-7-11,89,71,48,-100,-100,-100,0,0,100,0.00,40.00,0,-999,0,0.00
2012-7-12,87,68,46,-100,-100,-100,0,0,100,0.00,40.00,0,-999,0,0.00
2012-7-13,85,70,44,-100,-100,-100,0,0,100,0.00,40.00,0,-999,0,0.00
2012-7-14,80,63,50,-100,-100,-100,0,0,100,0.00,40.00,0,-999,0,0.65
2012-7-15,75,62,50,-100,-100,-100,0,0,100,0.00,40.00,0,-999,0,0.65
2012-7-16,76,60,40,-100,-100,-100,0,0,100,0.00,40.00,0,-999,0,0.00
2012-7-17,80,66,51,-100,-100,-100,0,0,100,0.00,40.00,0,-999,0,0.00
2012-7-18,81,66,56,-100,-100,-100,0,0,100,0.00,40.00,0,-999,0,0.03
2012-7-19,88,68,50,-100,-100,-100,0,0,100,0.00,40.00,0,-999,0,0.01
2012-7-20,72,63,51,-100,-100,-100,0,0,100,0.00,40.00,0,-999,0,0.00
2012-7-21,82,66,41,-100,-100,-100,0,0,100,0.00,40.00,0,-999,0,0.00
2012-7-22,81,64,45,-100,-100,-100,0,0,100,0.00,40.00,0,-999,0,0.00
2012-7-23,74,58,38,-100,-100,-100,0,0,100,0.00,40.00,0,-999,0,0.00
2012-7-24,85,64,35,-100,-100,-100,0,0,100,0.00,40.00,0,-999,0,0.00
2012-7-25,88,69,45,-100,-100,-100,0,0,100,0.00,40.00,0,-999,0,0.00
2012-7-26,87,70,49,-100,-100,-100,0,0,100,0.00,40.00,0,-999,0,0.00
2012-7-27,82,66,49,-100,-100,-100,0,0,100,0.00,40.00,0,-999,0,0.00
2012-7-28,81,63,38,-100,-100,-100,0,0,100,0.00,40.00,0,-999,0,0.00
2012-7-29,83,64,42,-100,-100,-100,0,0,100,0.00,40.00,0,-999,0,0.00
2012-7-30,80,63,41,-100,-100,-100,0,0,100,0.00,40.00,0,-999,0,0.00
2012-7-31,83,64,41,-100,-100,-100,0,0,100,0.00,40.00,0,-999,0,0.00
2012-8-1,83,68,38,-100,-100,-100,0,0,100,0.00,40.00,0,-999,0,0.00
2012-8-2,81,66,42,-100,-100,-100,0,0,100,0.00,40.00,0,-999,0,0.00
2012-8-3,81,69,40,-100,-100,-100,0,0,100,0.00,40.00,0,-999,0,0.00
2012-8-4,92,76,42,-100,-100,-100,0,0,100,0.00,40.00,0,-999,0,0.00
2012-8-5,94,78,47,-100,-100,-100,0,0,100,0.00,40.00,0,-999,0,0.00
2012-8-6,93,79,58,-100,-100,-100,0,0,100,0.00,40.00,0,-999,0,0.00
2012-8-7,91,77,48,-100,-100,-100,0,0,100,0.00,40.00,0,-999,0,0.00
2012-8-15,86,72,49,-100,-100,-100,0,0,100,0.00,40.00,0,-999,0,0.00
2012-8-16,89,74,47,-100,-100,-100,0,0,100,0.00,40.00,0,-999,0,0.00
2012-8-17,94,81,49,-100,-100,-100,0,0,100,0.00,40.00,0,-999,0,0.00
2012-8-18,90,73,54,-100,-100,-100,0,0,100,0.00,40.00,0,-999,0,0.00
2012-8-19,88,76,47,-100,-100,-100,0,0,100,0.00,40.00,0,-999,0,0.00
2012-8-20,88,73,46,-100,-100,-100,0,0,100,0.00,40.00,0,-999,0,0.00
2012-8-21,81,69,49,-100,-100,-100,0,0,100,0.00,40.00,0,-999,0,0.00
2012-8-22,79,61,39,-100,-100,-100,0,0,100,0.00,40.00,0,-999,0,0.00
2012-8-23,76,58,38,-100,-100,-100,0,0,100,0.00,40.00,0,-999,0,0.00
2012-8-24,75,55,33,-100,-100,-100,0,0,100,0.00,40.00,0,-999,0,0.00
2012-8-25,78,58,34,-100,-100,-100,0,0,100,0.00,40.00,0,-999,0,0.00
2012-8-26,86,63,41,-100,-100,-100,0,0,100,0.00,40.00,0,-999,0,0.00
2012-8-27,82,62,41,-100,-100,-100,0,0,100,0.00,40.00,0,-999,0,0.00
2012-8-28,76,58,40,-100,-100,-100,0,0,100,0.00,40.00,0,-999,0,0.00
2012-8-29,69,53,35,-100,-100,-100,0,0,100,0.00,40.00,0,-999,0,0.00
2012-8-30,82,60,36,-100,-100,-100,0,0,100,0.00,40.00,0,-999,0,0.00
2012-8-31,78,59,38,-100,-100,-100,0,0,100,0.00,40.00,0,-999,0,0.00
2012-9-1,74,56,30,-100,-100,-100,0,0,100,0.00,40.00,0,-999,0,0.00
2012-9-2,76,57,33,-100,-100,-100,0,0,100,0.00,40.00,0,-999,0,0.00
2012-9-3,80,60,37,-100,-100,-100,0,0,100,0.00,40.00,0,-999,0,0.00
2012-9-4,79,60,38,-100,-100,-100,0,0,100,0.00,40.00,0,-999,0,0.00
2012-9-5,85,64,40,-100,-100,-100,0,0,100,0.00,40.00,0,-999,0,0.00
2012-9-6,77,60,42,-100,-100,-100,0,0,100,0.00,40.00,0,-999,0,0.00
2012-9-7,82,62,38,-100,-100,-100,0,0,100,0.00,40.00,0,-999,0,0.00
2012-9-8,85,66,42,-100,-100,-100,0,0,100,0.00,40.00,0,-999,0,0.00
2012-9-9,75,59,46,-100,-100,-100,0,0,100,0.00,40.00,0,-999,0,0.00
2012-9-10,65,50,37,-100,-100,-100,0,0,100,0.00,40.00,0,-999,0,0.00
2012-9-11,65,47,26,-100,-100,-100,0,0,100,0.00,40.00,0,-999,0,0.00
2012-9-12,73,56,27,-100,-100,-100,0,0,100,0.00,40.00,0,-999,0,0.00
2012-9-13,80,62,30,-100,-100,-100,0,0,100,0.00,40.00,0,-999,0,0.00
2012-9-14,88,68,42,-100,-100,-100,0,0,100,0.00,40.00,0,-999,0,0.13
2012-9-16,77,62,38,-100,-100,-100,0,0,100,0.00,40.00,0,-999,0,0.01
2012-9-17,80,66,37,-100,-100,-100,0,0,100,0.00,40.00,0,-999,0,0.00
2012-9-18,87,66,42,-100,-100,-100,0,0,100,0.00,40.00,0,-999,0,0.00
2012-9-19,87,70,43,-100,-100,-100,0,0,100,0.00,40.00,0,-999,0,0.00
2012-9-20,87,73,45,-100,-100,-100,0,0,100,0.00,40.00,0,-999,0,0.00
2012-9-21,81,66,41,-100,-100,-100,0,0,100,0.00,40.00,0,-999,0,0.00
2012-9-22,74,60,42,-100,-100,-100,0,0,100,0.00,40.00,0,-999,0,0.00
2012-9-23,67,56,43,-100,-100,-100,0,0,100,0.00,40.00,0,-999,0,0.02
2012-9-24,74,56,38,-100,-100,-100,0,0,100,0.00,40.00,0,-999,0,0.01
2012-9-25,73,58,41,-100,-100,-100,0,0,100,0.00,40.00,0,-999,0,0.00
2012-9-26,72,56,30,-100,-100,-100,0,0,100,0.00,40.00,0,-999,0,0.00
2012-9-27,74,58,39,-100,-100,-100,0,0,100,0.00,40.00,0,-999,0,0.00
2012-9-28,77,63,45,-100,-100,-100,0,0,100,0.00,40.00,0,-999,0,0.00
2012-9-29,78,61,44,-100,-100,-100,0,0,100,0.00,40.00,0,-999,0,0.00
2012-9-30,75,59,38,-100,-100,-100,0,0,100,0.00,40.00,0,-999,0,0.00
2012-10-1,80,63,37,-100,-100,-100,0,0,100,0.00,40.00,0,-999,0,0.00
2012-10-2,74,57,41,-100,-100,-100,0,0,100,0.00,40.00,0,-999,0,0.01
2012-10-3,56,46,23,-100,-100,-100,0,0,100,0.00,40.00,0,-999,0,0.01
2012-10-4,58,43,20,-100,-100,-100,0,0,100,0.00,40.00,0,-999,0,0.01
2012-10-5,58,44,20,-100,-100,-100,0,0,100,0.00,40.00,0,-999,0,0.01
2012-10-6,61,46,18,-100,-100,-100,0,0,100,0.00,40.00,0,-999,0,0.00
2012-10-7,66,49,22,-100,-100,-100,0,0,100,0.00,40.00,0,-999,0,0.00
2012-10-8,70,55,29,-100,-100,-100,0,0,100,0.00,40.00,0,-999,0,0.00
2012-10-9,68,54,30,-100,-100,-100,0,0,100,0.00,40.00,0,-999,0,0.00
2012-10-10,74,53,33,-100,-100,-100,0,0,100,0.00,40.00,0,-999,0,0.00
2012-10-11,72,54,31,-100,-100,-100,0,0,100,0.00,40.00,0,-999,0,0.00
2012-10-12,66,48,32,-100,-100,-100,0,0,100,0.00,40.00,0,-999,0,0.19
2012-10-13,62,52,44,-100,-100,-100,0,0,100,0.00,40.00,0,-999,0,0.22
2012-10-14,63,56,48,-100,-100,-100,0,0,100,0.00,40.00,0,-999,0,0.00
2012-10-15,65,56,49,-100,-100,-100,0,0,100,0.00,40.00,0,-999,0,0.63
2012-10-16,57,49,34,-100,-100,-100,0,0,100,0.00,40.00,0,-999,0,0.61
2012-10-17,61,41,28,-100,-100,-100,0,0,100,0.00,40.00,0,-999,0,0.01
2012-10-18,74,53,33,-100,-100,-100,0,0,100,0.00,40.00,0,-999,0,0.00
2012-10-19,59,54,48,-100,-100,-100,0,0,100,0.00,40.00,0,-999,0,0.04
2012-10-20,47,42,31,-100,-100,-100,0,0,100,0.00,40.00,0,-999,0,0.01
2012-10-21,47,36,31,-100,-100,-100,0,0,100,0.00,40.00,0,-999,0,0.03
2012-10-22,43,35,29,-100,-100,-100,0,0,100,0.00,40.00,0,-999,0,0.17
2012-10-23,43,36,30,-100,-100,-100,0,0,100,0.00,40.00,0,-999,0,0.09
2012-10-24,43,37,33,-100,-100,-100,0,0,100,0.00,40.00,0,-999,0,0.08
2012-10-25,48,36,27,-100,-100,-100,0,0,100,0.00,40.00,0,-999,0,0.00
2012-10-26,55,43,35,-100,-100,-100,0,0,100,0.00,40.00,0,-999,0,0.00
2012-10-27,54,46,35,-100,-100,-100,0,0,100,0.00,40.00,0,-999,0,0.03
2012-10-28,57,53,50,-100,-100,-100,0,0,100,0.00,40.00,0,-999,0,0.09
2012-10-29,59,54,48,-100,-100,-100,0,0,100,0.00,40.00,0,-999,0,0.11
2012-10-30,63,55,48,-100,-100,-100,0,0,100,0.00,40.00,0,-999,0,0.01
2012-10-31,61,52,43,-100,-100,-100,0,0,100,0.00,40.00,0,-999,0,0.02
2012-11-1,52,45,37,-100,-100,-100,0,0,100,0.00,40.00,0,-999,0,0.07
2012-11-2,56,46,36,-100,-100,-100,0,0,100,0.00,40.00,0,-999,0,0.00
2012-11-3,56,50,45,-100,-100,-100,0,0,100,0.00,40.00,0,-999,0,0.00
2012-11-4,69,54,44,-100,-100,-100,0,0,100,0.00,40.00,0,-999,0,0.00
2012-11-5,71,54,44,-100,-100,-100,0,0,100,0.00,40.00,0,-999,0,0.00
2012-11-6,71,58,45,-100,-100,-100,0,0,100,0.00,40.00,0,-999,0,0.00
2012-11-7,51,40,23,-100,-100,-100,0,0,100,0.00,40.00,0,-999,0,0.00
2012-11-8,42,33,27,-100,-100,-100,0,0,100,0.00,40.00,0,-999,0,0.00
2012-11-9,36,30,25,-100,-100,-100,0,0,100,0.00,40.00,0,-999,0,0.09
2012-11-10,35,29,19,-100,-100,-100,0,0,100,0.00,40.00,0,-999,0,0.09
2012-11-11,39,32,21,-100,-100,-100,0,0,100,0.00,40.00,0,-999,0,0.02
2012-11-12,41,38,35,-100,-100,-100,0,0,100,0.00,40.00,0,-999,0,0.14
2012-11-13,48,39,29,-100,-100,-100,0,0,100,0.00,40.00,0,-999,0,0.02
2012-11-14,47,35,26,-100,-100,-100,0,0,100,0.00,40.00,0,-999,0,0.01
2012-11-15,49,36,24,-100,-100,-100,0,0,100,0.00,40.00,0,-999,0,0.00
2012-11-16,52,44,38,-100,-100,-100,0,0,100,0.00,40.00,0,-999,0,0.00
2012-11-17,50,43,31,-100,-100,-100,0,0,100,0.00,40.00,0,-999,0,0.02
2012-11-18,42,37,30,-100,-100,-100,0,0,100,0.00,40.00,0,-999,0,0.01
2012-11-19,52,46,40,-100,-100,-100,0,0,100,0.00,40.00,0,-999,0,0.21
2012-11-20,50,42,38,-100,-100,-100,0,0,100,0.00,40.00,0,-999,0,0.74
2012-11-21,43,36,28,-100,-100,-100,0,0,100,0.00,40.00,0,-999,0,0.10
2012-11-22,46,38,25,-100,-100,-100,0,0,100,0.00,40.00,0,-999,0,0.01
2012-11-23,50,45,41,-100,-100,-100,0,0,100,0.00,40.00,0,-999,0,0.00
2012-11-24,48,42,36,-100,-100,-100,0,0,100,0.00,40.00,0,-999,0,0.34
2012-11-25,39,31,23,-100,-100,-100,0,0,100,0.00,40.00,0,-999,0,0.08
2012-11-26,27,23,21,-100,-100,-100,0,0,100,0.00,40.00,0,-999,0,0.01
2012-11-27,35,28,21,-100,-100,-100,0,0,100,0.00,40.00,0,-999,0,0.01
2012-11-28,40,31,25,-100,-100,-100,0,0,100,0.00,40.00,0,-999,0,0.01
2012-11-29,48,44,40,-100,-100,-100,0,0,100,0.00,40.00,0,-999,0,0.17
2012-11-30,52,44,39,-100,-100,-100,0,0,100,0.00,40.00,0,-999,0,0.29
2012-12-1,46,42,37,-100,-100,-100,0,0,100,0.00,40.00,0,-999,0,0.18
2012-12-2,43,39,35,-100,-100,-100,0,0,100,0.00,40.00,0,-999,0,0.53
2012-12-3,44,40,34,-100,-100,-100,0,0,100,0.00,40.00,0,-999,0,0.01
2012-12-4,50,44,36,-100,-100,-100,0,0,100,0.00,40.00,0,-999,0,0.46
2012-12-5,46,38,31,-100,-100,-100,0,0,100,0.00,40.00,0,-999,0,0.08
2012-12-6,36,32,28,-100,-100,-100,0,0,100,0.00,40.00,0,-999,0,0.00
2012-12-7,40,34,29,-100,-100,-100,0,0,100,0.00,40.00,0,-999,0,0.00
2012-12-8,32,30,29,-100,-100,-100,0,0,100,0.00,40.00,0,-999,0,0.00
2012-12-9,42,34,27,-100,-100,-100,0,0,100,0.00,40.00,0,-999,0,0.01
2012-12-10,48,41,34,-100,-100,-100,0,0,100,0.00,40.00,0,-999,0,0.00
2012-12-11,40,37,33,-100,-100,-100,0,0,100,0.00,40.00,0,-999,0,0.04
2012-12-12,36,32,24,-100,-100,-100,0,0,100,0.00,40.00,0,-999,0,0.05
2012-12-13,41,28,17,-100,-100,-100,0,0,100,0.00,40.00,0,-999,0,0.00
2012-12-14,39,27,16,-100,-100,-100,0,0,100,0.00,40.00,0,-999,0,0.11
2012-12-15,31,26,21,-100,-100,-100,0,0,100,0.00,40.00,0,-999,0,0.08
2012-12-16,38,32,18,-100,-100,-100,0,0,100,0.00,40.00,0,-999,0,0.34
2012-12-17,37,28,19,-100,-100,-100,0,0,100,0.00,40.00,0,-999,0,0.52
2012-12-18,29,22,14,-100,-100,-100,0,0,100,0.00,40.00,0,-999,0,0.07
2012-12-19,34,28,20,-100,-100,-100,0,0,100,0.00,40.00,0,-999,0,0.00
2012-12-20,39,34,31,-100,-100,-100,0,0,100,0.00,40.00,0,-999,0,0.04
2012-12-21,38,34,31,-100,-100,-100,0,0,100,0.00,40.00,0,-999,0,0.09
2012-12-22,39,35,28,-100,-100,-100,0,0,100,0.00,40.00,0,-999,0,0.01
2012-12-23,34,30,17,-100,-100,-100,0,0,100,0.00,40.00,0,-999,0,0.30
2012-12-24,36,25,16,-100,-100,-100,0,0,100,0.00,40.00,0,-999,0,0.06
2012-12-25,34,30,26,-100,-100,-100,0,0,100,0.00,40.00,0,-999,0,0.10
2012-12-26,41,31,23,-100,-100,-100,0,0,100,0.00,40.00,0,-999,0,0.14
2012-12-27,40,26,10,-100,-100,-100,0,0,100,0.00,40.00,0,-999,0,0.03
2012-12-28,31,25,17,-100,-100,-100,0,0,100,0.00,40.00,0,-999,0,0.01
2012-12-29,32,24,6,-100,-100,-100,0,0,100,0.00,40.00,0,-999,0,0.14
2012-12-30,25,22,9,-100,-100,-100,0,0,100,0.00,40.00,0,-999,0,0.15
2012-12-31,29,20,13,-100,-100,-100,0,0,100,0.00,40.00,0,-999,0,0.01
2013-1-1,23,12,2,-100,-100,-100,0,0,100,0.00,40.00,0,-999,0,0.01